Tracking 30306 objects as of 22-Apr-2025
HD Live streaming from Space Station
objects crossing your sky now

THORAD DELTA 1 DEB

Track THORAD DELTA 1 DEB now!
10-day predictions


NORAD ID: 42595
Int'l Code: 1974-089FL
Perigee: 1,452.5 km
Apogee: 1,518.9 km
Inclination: 101.6 °
Period: 115.5 minutes
Semi major axis: 7856 km
RCS: Unknown
Launch date: November 15, 1974
Source: United States (US)
Launch site: AIR FORCE WESTERN TEST RANGE (AFWTR)

Note: This is SATELLITE DEBRIS
Your satellite tracking list
Your tracking list is empty




NASA's NSSDC Master Catalog

Two Line Element Set (TLE):
1 42595U 74089FL  25111.89152185  .00000100  00000-0  97824-3 0  9996
2 42595 101.6117  91.4253 0042221  31.8746 328.4865 12.46648468519468
Source of the keplerian elements: AFSPC